EW9826 Weather Reports


Display with metric or nautical units.
time (UTC)temp
F
wind
direction
speed
MPH
gust
MPH
rain 1hr
in
rain 24hr
in
rain mn
in
humidity
%
barometer
mb
20260507043008 44 3 1.0 2.0 0.00 0.00 0.00 88 1014.8
20260507042508 44 3 1.0 2.0 0.00 0.00 0.00 88 1014.7
20260507042008 44 3 1.0 2.0 0.00 0.00 0.00 87 1014.7
20260507035508 45 4 1.0 2.0 0.00 0.00 0.00 87 1014.6
20260507035007 45 2 1.0 3.0 0.00 0.00 0.00 86 1014.6
20260507034508 45 3 1.0 2.0 0.00 0.00 0.00 86 1014.6
20260507033007 45 4 1.0 3.0 0.00 0.00 0.00 86 1014.4
20260507032507 45 3 2.0 3.0 0.00 0.00 0.00 86 1014.4
20260507025007 45 4 0.0 3.0 0.00 0.00 0.00 85 1014.2
20260507020007 45 4 1.0 2.0 0.00 0.00 0.00 84 1014.0
20260507015507 45 3 1.0 3.0 0.00 0.00 0.00 84 1013.9
20260507015007 45 3 1.0 3.0 0.00 0.00 0.00 84 1013.8
20260507014507 45 4 2.0 3.0 0.00 0.00 0.00 84 1013.8
20260507014007 46 3 1.0 3.0 0.00 0.00 0.00 84 1013.8
20260507013507 46 3 1.0 3.0 0.00 0.00 0.00 84 1013.8
20260507013007 46 3 1.0 6.0 0.00 0.00 0.00 84 1013.8
20260507012507 46 3 2.0 5.0 0.00 0.00 0.00 84 1013.8
20260507012007 46 4 2.0 3.0 0.00 0.00 0.00 84 1013.8
20260507011507 46 3 2.0 3.0 0.00 0.00 0.00 84 1013.7
20260507010007 46 3 1.0 3.0 0.00 0.00 0.00 84 1013.7
20260507005507 46 3 2.0 5.0 0.00 0.00 0.00 85 1013.7
20260507005007 46 3 2.0 3.0 0.00 0.00 0.00 85 1013.7
20260507002007 47 4 2.0 5.0 0.00 0.00 0.00 84 1013.7
20260507001507 47 3 2.0 6.0 0.00 0.00 0.00 85 1013.7
20260507001008 47 4 1.0 6.0 0.00 0.00 0.00 85 1013.7
20260507000007 47 3 2.0 6.0 0.00 0.00 0.00 85 1013.6
20260506235506 47 4 3.0 6.0 0.00 0.00 0.00 84 1013.6
20260506235007 47 3 3.0 7.0 0.00 0.00 0.00 84 1013.6
20260506233007 48 355 3.0 7.0 0.00 0.00 0.00 84 1013.3
20260506232506 48 355 2.0 5.0 0.00 0.00 0.00 83 1013.4
20260506232007 48 355 3.0 6.0 0.00 0.00 0.00 83 1013.3
20260506231507 48 355 2.0 20.0 0.00 0.00 0.00 83 1013.4
20260506231006 48 355 2.0 6.0 0.00 0.00 0.00 83 1013.3
20260506225007 48 0 3.0 7.0 0.00 0.00 0.00 82 1013.3
20260506222507 49 0 3.0 8.0 0.00 0.00 0.00 79 1013.2
20260506222007 49 0 3.0 6.0 0.00 0.00 0.00 79 1013.2
20260506214006 51 4 3.0 7.0 0.00 0.00 0.00 75 1012.8
20260506213506 51 4 3.0 7.0 0.00 0.00 0.00 74 1012.8
20260506212007 51 0 7.0 9.0 0.00 0.00 0.00 72 1012.7
20260506210006 52 2 4.0 10.0 0.00 0.00 0.00 70 1012.7
20260506202007 53 24 3.0 7.0 0.00 0.00 0.00 68 1012.5
20260506201506 53 3 3.0 6.0 0.00 0.00 0.00 68 1012.4
20260506201006 53 3 3.0 8.0 0.00 0.00 0.00 67 1012.3
20260506200006 54 20 2.0 3.0 0.00 0.00 0.00 67 1012.2
20260506195506 54 22 2.0 6.0 0.00 0.00 0.00 67 1012.2
20260506192006 55 62 2.0 7.0 0.00 0.00 0.00 65 1011.7
20260506191505 55 69 2.0 5.0 0.00 0.00 0.00 64 1011.7
20260506191007 55 69 2.0 5.0 0.00 0.00 0.00 64 1011.7
20260506190006 55 71 2.0 7.0 0.00 0.00 0.00 64 1011.6
20260506182505 55 4 4.0 7.0 0.00 0.00 0.00 63 1011.1
20260506182006 56 37 3.0 6.0 0.00 0.00 0.00 63 1011.1
20260506181506 56 37 1.0 5.0 0.00 0.00 0.00 62 1011.0
20260506181006 56 37 1.0 6.0 0.00 0.00 0.00 62 1010.9
20260506175505 56 56 2.0 7.0 0.00 0.00 0.00 59 1010.6
20260506174006 56 60 3.0 5.0 0.00 0.00 0.00 55 1010.5
20260506173506 56 61 2.0 7.0 0.00 0.00 0.00 55 1010.4
20260506170005 57 53 4.0 8.0 0.00 0.00 0.00 52 1010.1
20260506165505 57 13 3.0 7.0 0.00 0.00 0.00 50 1010.1
20260506165006 57 344 3.0 7.0 0.00 0.00 0.00 50 1010.1
20260506153505 58 93 3.0 8.0 0.00 0.00 0.00 50 1010.0
20260506153005 59 95 2.0 6.0 0.00 0.00 0.00 48 1009.9
20260506152506 59 102 6.0 13.0 0.00 0.00 0.00 46 1009.9
20260506152006 59 82 2.0 7.0 0.00 0.00 0.00 45 1009.9
20260506151505 59 13 6.0 9.0 0.00 0.00 0.00 45 1009.9
20260506151006 59 16 5.0 13.0 0.00 0.00 0.00 45 1009.9
20260506145506 59 64 5.0 12.0 0.00 0.00 0.00 45 1009.7
20260506145006 59 82 5.0 13.0 0.00 0.00 0.00 44 1009.7
20260506144505 59 32 9.0 13.0 0.00 0.00 0.00 44 1009.7
20260506134005 59 56 6.0 13.0 0.00 0.00 0.00 47 1009.7
20260506133505 59 35 5.0 12.0 0.00 0.00 0.00 47 1009.6
20260506133005 59 15 5.0 9.0 0.00 0.00 0.00 48 1009.6
20260506132505 59 72 5.0 12.0 0.00 0.00 0.00 47 1009.6
20260506132005 59 64 6.0 12.0 0.00 0.00 0.00 46 1009.6
20260506131505 59 43 4.0 10.0 0.00 0.00 0.00 46 1009.6
20260506131005 59 71 5.0 12.0 0.00 0.00 0.00 47 1009.6
20260506130005 59 20 7.0 16.0 0.00 0.00 0.00 47 1009.6
20260506125504 59 65 6.0 10.0 0.00 0.00 0.00 47 1009.6
20260506124006 58 38 6.0 12.0 0.00 0.00 0.00 48 1009.6
20260506123505 58 7 7.0 12.0 0.00 0.00 0.00 49 1009.5
20260506123005 58 56 5.0 13.0 0.00 0.00 0.00 49 1009.4
20260506122504 58 15 6.0 10.0 0.00 0.00 0.00 50 1009.5
20260506122005 58 17 3.0 9.0 0.00 0.00 0.00 53 1009.5
20260506115004 59 354 6.0 15.0 0.00 0.00 0.00 53 1009.3
20260506114505 58 74 4.0 8.0 0.00 0.00 0.00 53 1009.4
20260506114005 58 13 5.0 12.0 0.00 0.00 0.00 50 1009.5
20260506113505 58 19 5.0 10.0 0.00 0.00 0.00 51 1009.5
20260506110005 56 347 5.0 8.0 0.00 0.00 0.00 64 1009.5
20260506105504 56 8 7.0 13.0 0.00 0.00 0.00 64 1009.5
20260506095004 57 0 5.0 14.0 0.00 0.00 0.00 64 1009.2
20260506094504 57 27 4.0 10.0 0.00 0.00 0.00 66 1009.1
20260506094004 56 35 5.0 20.0 0.00 0.00 0.00 66 1009.1
20260506093505 57 47 5.0 15.0 0.00 0.00 0.00 66 1009.1
20260506093005 57 354 6.0 12.0 0.00 0.00 0.00 66 1009.1
20260506092004 57 18 6.0 14.0 0.00 0.00 0.00 67 1009.1
20260506091504 57 32 6.0 13.0 0.00 0.00 0.00 66 1009.1
20260506091004 57 20 6.0 15.0 0.00 0.00 0.00 67 1009.0
20260506090004 56 61 5.0 14.0 0.00 0.00 0.00 68 1009.1
20260506085504 56 59 6.0 12.0 0.00 0.00 0.00 68 1009.0
20260506085005 56 63 7.0 10.0 0.00 0.00 0.00 69 1009.0
20260506084504 55 19 5.0 10.0 0.00 0.00 0.00 72 1009.0
20260506084009 55 6 7.0 12.0 0.00 0.00 0.00 72 1009.0
20260506083010 55 17 4.0 10.0 0.00 0.00 0.00 74 1009.0
20260506082508 54 16 5.0 12.0 0.00 0.00 0.00 74 1009.0
20260506073508 54 25 5.0 12.0 0.00 0.00 0.00 76 1009.0
20260506072508 54 0 5.0 10.0 0.00 0.00 0.00 76 1009.0
20260506062008 52 1 6.0 12.0 0.00 0.00 0.00 80 1008.6
20260506061508 52 11 5.0 10.0 0.00 0.00 0.00 81 1008.6
20260506045007 50 4 6.0 12.0 0.00 0.00 0.00 83 1008.6
20260506044507 50 353 7.0 10.0 0.00 0.00 0.00 83 1008.6